SCP
0 0 0 0 0 0 -0 0 0 0 0 0 0 0 0 0 0 0 0 -0 -0 -1 -0 -0 -0 -1 -1 -1 -1 -1 -0 -0 -0 -0 -0 -0 -0 -0 -0 -0 -0 -0 -0 -0 -0 -0 0 0 0
0 0 0 0 0 0 -0 -0 0 0 0 0 0 0 0 0 0 0 0 0 -0 -0 -0 0 -0 -0 -1 -1 -0 -0 -0 -0 -0 -0 -0 -0 -0 -0 -0 -0 -0 -0 -0 0 0 0 0 0 0
0 0 0 0 0 0 0 0 0 0 0 0 0 0 1 0 1 0 0 1 1 1 1 0 -0 -0 -0 -0 -0 -0 -0 -0 -0 -0 -0 -0 -0 -0 -0 0 0 0 0 0 0 0 0 0 0
0 0 0 0 0 0 0 0 0 0 -0 -0 0 1 2 0 0 0 0 0 -0 0 0 -0 -0 -0 -0 -0 -0 -0 -0 -0 -0 -0 -0 -0 -0 -0 0 0 0 0 0 0 0 0 0 0 0
0 0 0 0 -0 0 0 0 0 0 -0 -0 0 0 2 1 0 0 0 0 0 0 0 0 -0 -0 -0 -0 -0 -0 -0 -0 -0 -0 -0 -0 -0 0 0 0 0 0 0 0 0 0 0 0 0
0 0 0 0 0 0 0 0 0 0 0 0 0 2 2 1 1 0 0 0 0 0 1 0 -0 0 0 -0 -0 -0 -0 -0 -0 -0 0 0 0 0 0 0 0 0 0 0 0 0 0 0 0
0 0 0 0 0 0 0 0 0 0 0 0 0 2 2 1 1 0 0 0 0 1 1 1 0 0 0 0 0 0 0 0 0 0 0 0 0 0 0 0 0 0 0 0 0 0 0 0 0
0 0 0 0 0 0 -0 0 0 0 0 0 0 0 2 0 1 1 1 1 1 1 2 2 1 1 1 0 0 0 0 0 0 0 0 0 0 0 0 0 0 0 0 0 0 0 0 0 0
0 0 0 0 0 0 0 0 0 -0 0 0 0 0 1 2 3 3 2 1 1 1 2 2 1 1 0 0 0 0 0 0 0 0 0 0 0 0 0 0 0 0 0 0 0 0 0 0 0
0 0 0 0 0 0 0 0 -0 -0 0 0 0 0 1 2 3 2 2 1 0 1 2 1 1 1 1 1 0 1 1 1 0 0 0 0 0 0 0 0 0 0 0 0 0 0 0 0 0
0 0 0 0 0 0 -0 0 -0 0 0 0 0 0 1 1 2 2 1 0 0 0 1 1 1 1 1 1 1 1 0 0 0 0 0 0 0 0 0 -0 0 0 0 0 0 0 0 0 0
0 0 0 0 0 0 0 -0 -0 0 0 0 0 0 1 1 2 2 2 2 0 1 1 1 1 0 1 1 1 0 0 0 0 0 0 0 0 -0 -0 0 0 0 0 0 0 0 0 0 0
0 0 0 0 0 0 0 -0 0 0 0 0 0 0 0 0 1 2 3 2 1 0 0 0 0 0 0 0 0 0 0 0 0 0 0 0 0 0 0 0 0 0 0 0 0 0 0 0 0
0 0 0 0 0 0 0 0 0 -0 -0 0 0 0 0 0 0 0 2 1 0 0 0 0 0 0 0 0 0 0 0 0 0 0 0 0 -0 -0 0 0 0 0 0 0 0 0 0 0 0
0 0 0 0 0 0 0 0 -0 -0 -0 0 0 0 0 0 0 0 1 0 0 0 0 0 0 0 0 0 0 0 0 0 0 0 0 -0 -0 -0 0 0 0 0 0 1 0 0 0 0 0
0 0 0 0 0 0 0 -0 -0 -0 -0 0 0 0 0 0 0 1 1 0 0 0 0 0 0 0 0 0 -0 0 0 0 0 0 -0 -0 -0 -0 0 1 0 0 0 0 0 0 0 0 0
0 0 0 0 0 0 0 0 0 0 0 0 0 0 0 0 0 2 1 1 1 0 0 0 0 0 0 0 0 -0 0 0 0 0 0 0 0 0 0 0 0 0 0 0 0 0 0 0 0
0 0 0 0 0 0 0 0 0 0 0 0 0 0 0 0 0 0 1 1 0 0 0 0 0 0 0 1 1 1 1 1 1 1 1 1 1 1 0 0 0 0 0 0 0 0 0 0 0
0 0 0 0 0 0 0 0 0 0 0 0 0 0 0 0 0 0 2 1 0 0 0 0 0 0 0 1 1 1 1 1 1 1 1 1 1 0 0 0 0 0 0 0 0 0 0 0 0
0 0 0 0 0 0 0 0 0 0 0 0 0 0 0 0 0 1 0 1 1 0 0 0 0 0 0 1 2 2 3 2 2 1 1 1 0 0 0 0 0 0 0 0 0 0 0 0 0
0 0 0 0 0 0 0 0 0 0 0 0 0 0 0 0 0 1 0 0 0 0 0 0 0 0 0 1 1 1 2 3 1 2 2 1 0 0 0 0 0 0 0 0 0 0 0 0 0
0 0 0 0 0 0 0 0 0 0 0 0 0 0 0 0 0 2 1 0 0 0 0 0 0 0 0 0 1 1 1 1 2 1 1 0 0 0 0 0 0 0 0 0 0 0 0 0 0
0 0 0 0 0 0 0 0 -0 0 0 0 0 0 0 0 0 3 2 0 0 0 0 0 0 0 0 0 0 1 1 1 1 1 0 0 0 0 0 0 0 0 0 0 0 0 0 0 0
0 0 0 0 0 0 0 0 0 0 0 0 0 0 0 0 0 1 2 1 0 0 0 0 0 0 1 0 1 0 1 1 1 0 0 0 0 0 0 0 0 0 0 0 0 0 0 0 0
0 0 0 0 0 0 0 0 0 0 0 0 0 0 0 0 0 0 2 2 1 0 0 0 0 0 2 2 1 0 1 0 0 0 0 0 0 0 0 0 0 0 0 0 0 0 0 0 0
0 0 0 0 0 0 0 0 0 0 0 -0 -0 0 0 0 0 0 1 2 1 0 0 0 0 1 1 2 1 1 0 0 0 0 0 0 0 0 0 0 0 0 0 0 0 0 0 0 0
0 0 0 0 0 0 0 0 0 0 0 -0 0 0 -0 0 0 0 1 2 1 0 0 0 1 2 2 1 1 0 0 0 0 0 0 0 0 0 0 0 0 0 0 0 0 0 0 0 0
0 -0 0 0 0 0 0 0 0 0 0 -0 -0 0 -0 0 0 0 3 2 2 0 2 4 4 3 2 1 0 0 0 0 0 0 0 0 0 0 0 0 0 0 0 0 0 0 0 0 0
-0 -0 -0 0 0 0 0 0 0 0 -0 -0 -0 0 0 0 0 1 6 7 4 5 7 4 2 1 1 0 0 0 0 0 0 0 0 0 0 0 0 0 0 0 0 0 0 0 0 0 0
-0 -0 -0 0 0 0 0 -0 0 0 -0 -0 0 -0 -0 0 0 7 9 7 6 6 3 1 0 0 0 0 0 0 0 0 0 0 0 0 0 0 0 0 0 0 0 0 0 0 0 0 0
Wind_Speed_500mb
13 15 11 8 3 6 10 18 7 24 10 8 38 12 10 27 15 11 44 61 44 50 61 61 55 49 47 47 48 44 38 32 26 23 24 27 31 33 34 36 37 35 28 22 22 21 19 16 16
11 9 12 4 7 5 14 10 34 28 14 49 43 22 5 6 13 18 54 63 44 52 65 61 58 53 49 48 48 47 42 36 31 26 24 25 29 31 31 31 31 30 27 23 21 17 15 14 16
7 12 8 8 9 21 14 14 30 17 21 44 34 16 21 13 24 59 55 60 63 71 66 61 59 55 50 48 49 48 43 37 31 28 26 27 29 29 29 28 28 25 22 18 15 14 14 14 16
8 11 10 6 27 15 26 14 25 26 33 28 25 11 12 12 44 53 50 44 51 66 64 61 59 54 49 47 47 47 44 37 30 25 25 27 29 29 26 24 23 21 17 14 12 11 12 14 16
18 6 5 10 29 14 17 30 51 30 17 44 47 10 17 43 42 31 32 40 46 65 64 61 57 52 47 46 45 44 42 38 30 25 23 24 26 27 26 24 22 19 15 11 8 7 7 9 12
11 5 3 27 29 9 17 58 49 42 37 61 4 9 17 35 53 48 45 43 44 64 66 59 56 50 46 46 45 44 41 38 33 29 27 26 26 26 23 20 18 15 13 10 7 6 6 6 8
12 8 12 9 11 11 36 56 22 29 21 48 43 15 20 53 51 50 46 44 48 63 65 66 61 53 48 47 46 45 42 37 33 29 28 27 27 27 24 19 15 12 8 6 6 5 7 8 9
14 8 8 12 23 23 34 16 38 28 30 65 63 16 23 75 68 64 59 52 56 71 71 72 66 60 55 51 46 42 39 36 34 31 28 28 27 26 24 19 13 9 5 3 3 4 6 8 9
23 5 14 19 22 37 27 7 29 24 43 59 48 31 57 88 82 75 67 56 65 73 74 73 71 65 58 55 50 45 41 36 34 32 30 29 26 26 23 19 13 7 3 3 3 5 7 9 11
14 14 25 16 35 12 26 16 36 19 40 51 6 20 73 93 89 81 71 67 70 73 72 72 68 64 60 56 53 48 43 39 36 33 29 25 23 20 18 17 13 6 1 3 4 6 7 8 9
17 36 39 20 45 49 38 40 36 11 12 31 27 34 93 99 96 86 68 57 54 59 58 65 63 58 55 54 51 47 42 37 33 29 27 25 24 24 21 13 19 18 13 7 3 0 6 10 2
13 36 45 16 42 35 17 45 10 23 40 61 62 40 92 98 92 94 81 71 72 73 67 68 59 53 51 45 43 37 36 35 33 28 25 24 25 21 20 21 17 13 16 15 8 14 9 6 8
26 9 24 56 61 68 62 49 46 62 66 66 61 38 73 89 91 85 87 77 71 77 63 59 52 48 46 44 40 37 36 30 27 26 27 27 28 25 22 20 12 7 8 6 10 15 15 15 18
9 19 42 55 56 43 37 42 29 73 47 49 51 37 36 46 67 72 79 86 85 75 74 68 61 58 53 50 48 43 33 27 26 25 20 24 21 20 15 7 12 14 12 15 23 18 17 23 29
41 30 30 39 40 32 44 38 58 84 47 49 51 47 30 21 43 60 55 79 88 82 79 79 76 66 53 44 37 35 34 23 27 27 23 20 23 18 18 17 19 21 19 23 23 21 20 21 26
9 9 23 32 28 19 27 60 45 57 33 44 45 50 44 25 30 46 46 40 69 86 84 73 75 79 69 60 60 40 29 33 29 26 25 23 30 26 25 30 26 25 25 23 23 27 26 30 36
11 24 25 18 15 13 35 51 16 45 42 48 65 61 56 37 39 34 33 32 47 77 86 80 81 61 70 70 54 36 40 31 30 24 23 29 34 32 29 32 27 25 28 30 31 33 38 40 39
20 9 9 13 7 19 25 48 35 38 52 49 57 68 65 54 43 51 41 33 39 61 76 78 85 78 68 67 54 40 41 38 29 29 24 33 40 38 33 28 27 32 35 35 37 37 32 30 30
23 25 18 18 13 17 18 41 25 25 33 39 53 57 71 66 49 58 54 50 56 80 89 87 78 73 75 73 70 65 64 45 41 35 29 35 42 37 37 34 35 35 33 35 39 31 24 26 30
16 26 35 32 25 14 27 45 24 18 20 41 54 62 78 44 57 65 66 66 72 80 89 93 83 87 94 80 72 70 62 53 45 44 40 44 44 38 38 38 37 30 31 31 26 20 20 24 11
29 28 34 31 32 39 22 35 36 12 32 44 60 79 79 61 63 70 73 74 80 94 102 99 90 92 89 83 81 68 52 45 45 48 47 46 42 40 39 38 36 29 30 23 20 17 14 14 5
23 16 33 30 16 24 10 18 32 7 20 24 49 63 85 68 74 85 80 84 90 92 95 93 83 78 83 92 86 72 63 54 55 52 45 47 42 40 38 36 25 22 21 17 15 12 15 13 11
31 21 31 20 25 31 33 6 34 13 19 24 33 68 80 64 80 88 89 87 83 87 95 92 81 83 90 91 78 71 59 53 56 51 44 43 39 36 27 21 22 19 16 17 17 14 14 17 20
22 7 18 6 16 25 37 14 35 28 35 31 29 67 76 64 80 85 94 91 94 97 99 91 85 79 88 79 79 66 62 64 64 54 46 39 31 25 22 21 25 24 22 20 15 14 17 24 16
10 10 5 10 17 22 29 18 42 16 27 40 34 56 57 64 80 93 101 98 103 110 100 94 86 84 78 76 74 67 66 64 60 51 47 40 36 30 26 30 26 20 16 13 20 26 20 14 9
17 23 13 20 26 28 38 19 31 40 50 45 31 59 62 73 87 93 100 103 105 109 105 88 90 86 78 67 64 63 65 58 55 51 44 41 38 32 32 27 18 18 22 22 21 18 15 8 11
6 15 25 16 13 7 9 14 37 40 39 24 37 55 52 70 82 94 96 105 106 115 107 96 88 81 79 71 67 65 58 59 56 46 47 44 35 32 28 22 19 18 17 13 11 8 11 9 12
13 7 6 6 9 18 12 15 16 51 47 20 23 22 60 34 74 89 97 104 112 121 110 100 93 93 86 77 64 58 53 51 46 47 44 37 34 32 26 21 20 17 15 14 12 12 13 15 17
11 6 6 9 10 9 6 10 34 30 4 7 19 36 44 34 75 98 93 96 111 117 115 97 88 79 76 69 66 63 59 47 47 42 38 38 34 27 26 25 23 23 16 10 9 11 13 17 22
6 10 6 14 10 8 4 18 9 6 6 11 22 52 37 45 84 88 90 98 104 103 101 96 90 87 81 74 65 62 56 46 44 44 42 36 36 32 33 27 25 18 13 11 12 15 19 23 30
Wind_Direction_500mb
240 256 239 219 47 76 243 244 313 269 317 292 346 191 164 159 172 209 154 161 169 169 176 171 173 176 173 169 167 165 164 160 154 147 144 147 146 144 144 145 146 144 141 139 139 139 140 137 138
224 225 210 209 141 200 253 246 256 249 257 296 333 135 121 224 198 152 159 177 180 176 176 172 173 176 174 172 168 165 166 165 159 151 144 146 147 144 143 145 148 147 143 137 137 147 153 146 143
250 204 196 168 190 217 234 234 256 266 271 300 318 164 150 186 187 161 166 169 168 173 174 173 174 175 174 173 172 168 168 168 163 155 149 149 150 147 145 146 151 152 150 150 154 153 154 154 149
216 176 247 197 234 246 227 268 279 294 307 302 307 320 140 173 160 176 177 166 160 175 174 174 174 176 172 174 175 170 168 170 167 160 154 152 154 151 146 141 143 148 153 153 156 159 158 159 155
208 205 233 244 249 253 250 251 267 279 273 280 305 241 137 158 171 151 158 166 165 175 177 176 175 176 173 175 175 173 170 168 168 161 157 156 157 157 150 144 145 149 153 160 171 178 174 171 162
185 200 154 235 239 242 260 260 263 269 270 277 164 149 168 188 167 165 159 167 174 179 177 178 177 177 174 176 176 174 173 171 171 166 164 164 162 162 157 153 152 157 160 166 183 183 187 198 189
168 116 221 228 262 268 251 254 253 270 271 271 249 165 179 179 179 164 164 169 172 184 181 180 178 176 178 178 178 175 174 174 173 170 169 168 167 167 166 163 160 162 163 173 182 207 214 215 215
211 129 231 225 242 263 256 238 258 276 275 292 257 176 175 184 179 170 169 177 179 186 185 182 177 177 178 178 179 175 176 178 176 175 174 173 172 172 171 167 159 161 161 186 242 245 261 264 253
198 181 222 222 221 232 279 279 271 296 297 305 259 195 201 177 176 170 173 173 180 182 185 181 181 180 178 178 176 178 178 179 180 180 179 177 176 175 173 168 165 174 204 261 286 292 286 274 271
185 206 222 216 229 268 278 270 288 331 310 303 275 149 177 177 178 173 177 172 173 183 187 187 184 181 180 179 179 180 181 183 183 183 179 176 175 173 174 171 171 158 206 283 332 326 316 313 303
201 228 226 264 239 258 270 280 281 279 282 281 286 159 170 173 178 179 180 187 186 184 183 191 190 183 182 184 184 183 186 185 186 185 180 173 171 174 181 164 124 100 69 165 105 244 96 73 342
237 235 233 242 255 263 247 271 233 272 272 287 288 192 164 171 174 181 182 181 181 179 181 185 187 185 189 192 192 191 191 190 190 181 182 179 170 162 159 153 144 104 73 127 104 139 137 147 180
235 231 227 241 244 254 269 268 271 270 270 282 286 244 174 176 179 178 186 186 186 181 179 174 182 190 193 196 201 202 201 201 199 189 188 184 179 177 151 159 160 195 192 198 219 194 209 225 238
222 236 249 254 253 245 243 263 262 266 260 272 282 246 202 197 188 178 177 187 190 192 184 173 200 191 196 202 203 203 208 207 211 204 200 198 187 186 162 172 200 209 199 239 250 246 251 267 259
271 272 275 248 243 245 250 263 246 259 262 266 271 260 242 220 202 199 193 185 192 196 191 188 187 200 194 188 199 185 196 203 210 193 166 168 184 182 197 217 236 241 246 250 256 265 271 281 269
312 260 242 252 231 222 206 255 252 260 234 246 258 261 245 211 181 190 194 189 186 190 192 191 189 189 194 208 215 194 175 179 181 173 177 166 179 195 214 220 229 241 260 264 253 248 256 274 276
218 249 238 278 215 189 204 254 242 246 247 237 251 258 246 230 174 185 195 198 188 192 192 188 179 187 201 194 200 200 180 182 207 199 200 202 194 205 223 228 241 252 256 259 250 258 270 271 279
237 261 251 234 265 208 244 252 240 238 227 237 241 245 246 241 203 200 206 208 193 186 189 188 180 178 189 193 201 186 190 194 203 213 214 216 210 215 229 243 249 246 258 262 265 267 268 273 278
292 288 289 273 241 259 262 260 246 218 227 235 239 239 243 239 227 206 198 205 183 180 180 183 181 196 187 186 183 186 195 183 191 205 224 220 216 229 236 245 246 248 253 259 259 258 265 280 290
274 280 273 288 278 282 261 269 275 231 220 222 228 233 241 216 218 205 194 189 185 180 184 183 185 182 184 190 188 185 187 178 185 203 213 219 222 233 244 259 263 257 258 257 250 255 269 283 256
240 247 267 271 303 282 278 285 276 273 242 238 225 230 235 219 209 198 191 187 183 180 183 184 183 181 191 191 192 185 191 189 193 205 208 213 221 239 254 261 261 253 252 247 245 241 257 178 218
274 256 259 268 288 259 118 266 265 235 267 237 228 224 227 211 213 214 194 190 188 188 189 185 188 198 198 200 201 196 191 191 201 206 212 223 230 240 251 256 243 249 244 225 218 194 189 205 267
260 281 270 290 283 270 271 262 271 218 246 250 231 224 228 204 207 207 203 196 195 193 191 190 195 193 198 208 212 198 194 202 205 211 216 224 229 242 246 228 237 215 200 195 186 190 217 258 275
255 218 308 286 240 253 246 198 265 248 233 253 248 235 224 195 198 207 211 203 192 191 190 192 192 201 203 205 193 196 196 198 204 208 214 218 224 229 228 221 194 185 196 203 220 250 267 271 276
186 100 244 245 233 241 240 219 250 250 232 240 249 249 226 196 193 200 204 198 192 190 189 188 193 193 190 182 193 199 204 208 210 210 216 215 213 211 208 192 188 198 224 247 264 263 251 257 289
199 171 205 212 224 236 244 236 226 237 250 263 241 267 235 198 190 193 205 202 193 189 184 189 189 186 186 187 191 198 199 201 209 213 215 206 201 201 192 187 198 234 242 245 234 232 234 266 305
201 201 208 239 250 259 274 226 269 269 269 263 243 263 260 195 183 193 200 202 193 181 182 182 182 179 183 183 190 196 199 200 205 203 196 192 194 189 187 201 217 222 213 214 245 240 265 276 283
208 194 148 176 231 226 235 233 240 234 248 298 264 245 257 222 177 188 193 195 186 182 179 177 176 177 183 185 189 195 195 207 204 199 193 188 183 186 195 203 197 197 206 207 227 247 248 266 277
204 206 196 159 172 209 221 235 209 243 154 321 317 318 278 190 177 177 174 164 173 174 172 176 175 174 175 179 185 185 186 197 192 187 185 176 175 180 182 181 185 199 214 239 273 264 275 286 292
252 282 275 218 218 224 235 255 295 122 78 5 336 322 295 196 172 155 155 155 153 156 164 172 170 170 173 175 175 176 172 179 187 176 171 173 168 167 175 182 196 210 241 268 287 300 303 301 301
Wind_Speed_850mb
13 15 11 8 3 6 10 18 7 24 10 8 38 12 10 27 15 11 44 61 44 50 61 61 55 49 47 47 48 44 38 32 26 23 24 27 31 33 34 36 37 35 28 22 22 21 19 16 16
11 9 12 4 7 5 14 10 34 28 14 49 43 22 5 6 13 18 54 63 44 52 65 61 58 53 49 48 48 47 42 36 31 26 24 25 29 31 31 31 31 30 27 23 21 17 15 14 16
7 12 8 8 9 21 14 14 30 17 21 44 34 16 21 13 24 59 55 60 63 71 66 61 59 55 50 48 49 48 43 37 31 28 26 27 29 29 29 28 28 25 22 18 15 14 14 14 16
8 11 10 6 27 15 26 14 25 26 33 28 25 11 12 12 44 53 50 44 51 66 64 61 59 54 49 47 47 47 44 37 30 25 25 27 29 29 26 24 23 21 17 14 12 11 12 14 16
18 6 5 10 29 14 17 30 51 30 17 44 47 10 17 43 42 31 32 40 46 65 64 61 57 52 47 46 45 44 42 38 30 25 23 24 26 27 26 24 22 19 15 11 8 7 7 9 12
11 5 3 27 29 9 17 58 49 42 37 61 4 9 17 35 53 48 45 43 44 64 66 59 56 50 46 46 45 44 41 38 33 29 27 26 26 26 23 20 18 15 13 10 7 6 6 6 8
12 8 12 9 11 11 36 56 22 29 21 48 43 15 20 53 51 50 46 44 48 63 65 66 61 53 48 47 46 45 42 37 33 29 28 27 27 27 24 19 15 12 8 6 6 5 7 8 9
14 8 8 12 23 23 34 16 38 28 30 65 63 16 23 75 68 64 59 52 56 71 71 72 66 60 55 51 46 42 39 36 34 31 28 28 27 26 24 19 13 9 5 3 3 4 6 8 9
23 5 14 19 22 37 27 7 29 24 43 59 48 31 57 88 82 75 67 56 65 73 74 73 71 65 58 55 50 45 41 36 34 32 30 29 26 26 23 19 13 7 3 3 3 5 7 9 11
14 14 25 16 35 12 26 16 36 19 40 51 6 20 73 93 89 81 71 67 70 73 72 72 68 64 60 56 53 48 43 39 36 33 29 25 23 20 18 17 13 6 1 3 4 6 7 8 9
17 36 39 20 45 49 38 40 36 11 12 31 27 34 93 99 96 86 68 57 54 59 58 65 63 58 55 54 51 47 42 37 33 29 27 25 24 24 21 13 19 18 13 7 3 0 6 10 2
13 36 45 16 42 35 17 45 10 23 40 61 62 40 92 98 92 94 81 71 72 73 67 68 59 53 51 45 43 37 36 35 33 28 25 24 25 21 20 21 17 13 16 15 8 14 9 6 8
26 9 24 56 61 68 62 49 46 62 66 66 61 38 73 89 91 85 87 77 71 77 63 59 52 48 46 44 40 37 36 30 27 26 27 27 28 25 22 20 12 7 8 6 10 15 15 15 18
9 19 42 55 56 43 37 42 29 73 47 49 51 37 36 46 67 72 79 86 85 75 74 68 61 58 53 50 48 43 33 27 26 25 20 24 21 20 15 7 12 14 12 15 23 18 17 23 29
41 30 30 39 40 32 44 38 58 84 47 49 51 47 30 21 43 60 55 79 88 82 79 79 76 66 53 44 37 35 34 23 27 27 23 20 23 18 18 17 19 21 19 23 23 21 20 21 26
9 9 23 32 28 19 27 60 45 57 33 44 45 50 44 25 30 46 46 40 69 86 84 73 75 79 69 60 60 40 29 33 29 26 25 23 30 26 25 30 26 25 25 23 23 27 26 30 36
11 24 25 18 15 13 35 51 16 45 42 48 65 61 56 37 39 34 33 32 47 77 86 80 81 61 70 70 54 36 40 31 30 24 23 29 34 32 29 32 27 25 28 30 31 33 38 40 39
20 9 9 13 7 19 25 48 35 38 52 49 57 68 65 54 43 51 41 33 39 61 76 78 85 78 68 67 54 40 41 38 29 29 24 33 40 38 33 28 27 32 35 35 37 37 32 30 30
23 25 18 18 13 17 18 41 25 25 33 39 53 57 71 66 49 58 54 50 56 80 89 87 78 73 75 73 70 65 64 45 41 35 29 35 42 37 37 34 35 35 33 35 39 31 24 26 30
16 26 35 32 25 14 27 45 24 18 20 41 54 62 78 44 57 65 66 66 72 80 89 93 83 87 94 80 72 70 62 53 45 44 40 44 44 38 38 38 37 30 31 31 26 20 20 24 11
29 28 34 31 32 39 22 35 36 12 32 44 60 79 79 61 63 70 73 74 80 94 102 99 90 92 89 83 81 68 52 45 45 48 47 46 42 40 39 38 36 29 30 23 20 17 14 14 5
23 16 33 30 16 24 10 18 32 7 20 24 49 63 85 68 74 85 80 84 90 92 95 93 83 78 83 92 86 72 63 54 55 52 45 47 42 40 38 36 25 22 21 17 15 12 15 13 11
31 21 31 20 25 31 33 6 34 13 19 24 33 68 80 64 80 88 89 87 83 87 95 92 81 83 90 91 78 71 59 53 56 51 44 43 39 36 27 21 22 19 16 17 17 14 14 17 20
22 7 18 6 16 25 37 14 35 28 35 31 29 67 76 64 80 85 94 91 94 97 99 91 85 79 88 79 79 66 62 64 64 54 46 39 31 25 22 21 25 24 22 20 15 14 17 24 16
10 10 5 10 17 22 29 18 42 16 27 40 34 56 57 64 80 93 101 98 103 110 100 94 86 84 78 76 74 67 66 64 60 51 47 40 36 30 26 30 26 20 16 13 20 26 20 14 9
17 23 13 20 26 28 38 19 31 40 50 45 31 59 62 73 87 93 100 103 105 109 105 88 90 86 78 67 64 63 65 58 55 51 44 41 38 32 32 27 18 18 22 22 21 18 15 8 11
6 15 25 16 13 7 9 14 37 40 39 24 37 55 52 70 82 94 96 105 106 115 107 96 88 81 79 71 67 65 58 59 56 46 47 44 35 32 28 22 19 18 17 13 11 8 11 9 12
13 7 6 6 9 18 12 15 16 51 47 20 23 22 60 34 74 89 97 104 112 121 110 100 93 93 86 77 64 58 53 51 46 47 44 37 34 32 26 21 20 17 15 14 12 12 13 15 17
11 6 6 9 10 9 6 10 34 30 4 7 19 36 44 34 75 98 93 96 111 117 115 97 88 79 76 69 66 63 59 47 47 42 38 38 34 27 26 25 23 23 16 10 9 11 13 17 22
6 10 6 14 10 8 4 18 9 6 6 11 22 52 37 45 84 88 90 98 104 103 101 96 90 87 81 74 65 62 56 46 44 44 42 36 36 32 33 27 25 18 13 11 12 15 19 23 30
Wind_Direction_850mb
240 256 239 219 47 76 243 244 313 269 317 292 346 191 164 159 172 209 154 161 169 169 176 171 173 176 173 169 167 165 164 160 154 147 144 147 146 144 144 145 146 144 141 139 139 139 140 137 138
224 225 210 209 141 200 253 246 256 249 257 296 333 135 121 224 198 152 159 177 180 176 176 172 173 176 174 172 168 165 166 165 159 151 144 146 147 144 143 145 148 147 143 137 137 147 153 146 143
250 204 196 168 190 217 234 234 256 266 271 300 318 164 150 186 187 161 166 169 168 173 174 173 174 175 174 173 172 168 168 168 163 155 149 149 150 147 145 146 151 152 150 150 154 153 154 154 149
216 176 247 197 234 246 227 268 279 294 307 302 307 320 140 173 160 176 177 166 160 175 174 174 174 176 172 174 175 170 168 170 167 160 154 152 154 151 146 141 143 148 153 153 156 159 158 159 155
208 205 233 244 249 253 250 251 267 279 273 280 305 241 137 158 171 151 158 166 165 175 177 176 175 176 173 175 175 173 170 168 168 161 157 156 157 157 150 144 145 149 153 160 171 178 174 171 162
185 200 154 235 239 242 260 260 263 269 270 277 164 149 168 188 167 165 159 167 174 179 177 178 177 177 174 176 176 174 173 171 171 166 164 164 162 162 157 153 152 157 160 166 183 183 187 198 189
168 116 221 228 262 268 251 254 253 270 271 271 249 165 179 179 179 164 164 169 172 184 181 180 178 176 178 178 178 175 174 174 173 170 169 168 167 167 166 163 160 162 163 173 182 207 214 215 215
211 129 231 225 242 263 256 238 258 276 275 292 257 176 175 184 179 170 169 177 179 186 185 182 177 177 178 178 179 175 176 178 176 175 174 173 172 172 171 167 159 161 161 186 242 245 261 264 253
198 181 222 222 221 232 279 279 271 296 297 305 259 195 201 177 176 170 173 173 180 182 185 181 181 180 178 178 176 178 178 179 180 180 179 177 176 175 173 168 165 174 204 261 286 292 286 274 271
185 206 222 216 229 268 278 270 288 331 310 303 275 149 177 177 178 173 177 172 173 183 187 187 184 181 180 179 179 180 181 183 183 183 179 176 175 173 174 171 171 158 206 283 332 326 316 313 303
201 228 226 264 239 258 270 280 281 279 282 281 286 159 170 173 178 179 180 187 186 184 183 191 190 183 182 184 184 183 186 185 186 185 180 173 171 174 181 164 124 100 69 165 105 244 96 73 342
237 235 233 242 255 263 247 271 233 272 272 287 288 192 164 171 174 181 182 181 181 179 181 185 187 185 189 192 192 191 191 190 190 181 182 179 170 162 159 153 144 104 73 127 104 139 137 147 180
235 231 227 241 244 254 269 268 271 270 270 282 286 244 174 176 179 178 186 186 186 181 179 174 182 190 193 196 201 202 201 201 199 189 188 184 179 177 151 159 160 195 192 198 219 194 209 225 238
222 236 249 254 253 245 243 263 262 266 260 272 282 246 202 197 188 178 177 187 190 192 184 173 200 191 196 202 203 203 208 207 211 204 200 198 187 186 162 172 200 209 199 239 250 246 251 267 259
271 272 275 248 243 245 250 263 246 259 262 266 271 260 242 220 202 199 193 185 192 196 191 188 187 200 194 188 199 185 196 203 210 193 166 168 184 182 197 217 236 241 246 250 256 265 271 281 269
312 260 242 252 231 222 206 255 252 260 234 246 258 261 245 211 181 190 194 189 186 190 192 191 189 189 194 208 215 194 175 179 181 173 177 166 179 195 214 220 229 241 260 264 253 248 256 274 276
218 249 238 278 215 189 204 254 242 246 247 237 251 258 246 230 174 185 195 198 188 192 192 188 179 187 201 194 200 200 180 182 207 199 200 202 194 205 223 228 241 252 256 259 250 258 270 271 279
237 261 251 234 265 208 244 252 240 238 227 237 241 245 246 241 203 200 206 208 193 186 189 188 180 178 189 193 201 186 190 194 203 213 214 216 210 215 229 243 249 246 258 262 265 267 268 273 278
292 288 289 273 241 259 262 260 246 218 227 235 239 239 243 239 227 206 198 205 183 180 180 183 181 196 187 186 183 186 195 183 191 205 224 220 216 229 236 245 246 248 253 259 259 258 265 280 290
274 280 273 288 278 282 261 269 275 231 220 222 228 233 241 216 218 205 194 189 185 180 184 183 185 182 184 190 188 185 187 178 185 203 213 219 222 233 244 259 263 257 258 257 250 255 269 283 256
240 247 267 271 303 282 278 285 276 273 242 238 225 230 235 219 209 198 191 187 183 180 183 184 183 181 191 191 192 185 191 189 193 205 208 213 221 239 254 261 261 253 252 247 245 241 257 178 218
274 256 259 268 288 259 118 266 265 235 267 237 228 224 227 211 213 214 194 190 188 188 189 185 188 198 198 200 201 196 191 191 201 206 212 223 230 240 251 256 243 249 244 225 218 194 189 205 267
260 281 270 290 283 270 271 262 271 218 246 250 231 224 228 204 207 207 203 196 195 193 191 190 195 193 198 208 212 198 194 202 205 211 216 224 229 242 246 228 237 215 200 195 186 190 217 258 275
255 218 308 286 240 253 246 198 265 248 233 253 248 235 224 195 198 207 211 203 192 191 190 192 192 201 203 205 193 196 196 198 204 208 214 218 224 229 228 221 194 185 196 203 220 250 267 271 276
186 100 244 245 233 241 240 219 250 250 232 240 249 249 226 196 193 200 204 198 192 190 189 188 193 193 190 182 193 199 204 208 210 210 216 215 213 211 208 192 188 198 224 247 264 263 251 257 289
199 171 205 212 224 236 244 236 226 237 250 263 241 267 235 198 190 193 205 202 193 189 184 189 189 186 186 187 191 198 199 201 209 213 215 206 201 201 192 187 198 234 242 245 234 232 234 266 305
201 201 208 239 250 259 274 226 269 269 269 263 243 263 260 195 183 193 200 202 193 181 182 182 182 179 183 183 190 196 199 200 205 203 196 192 194 189 187 201 217 222 213 214 245 240 265 276 283
208 194 148 176 231 226 235 233 240 234 248 298 264 245 257 222 177 188 193 195 186 182 179 177 176 177 183 185 189 195 195 207 204 199 193 188 183 186 195 203 197 197 206 207 227 247 248 266 277
204 206 196 159 172 209 221 235 209 243 154 321 317 318 278 190 177 177 174 164 173 174 172 176 175 174 175 179 185 185 186 197 192 187 185 176 175 180 182 181 185 199 214 239 273 264 275 286 292
252 282 275 218 218 224 235 255 295 122 78 5 336 322 295 196 172 155 155 155 153 156 164 172 170 170 173 175 175 176 172 179 187 176 171 173 168 167 175 182 196 210 241 268 287 300 303 301 301